Location: Enborne
(51.3833°N, 1.3667°W)
Time: 23:09:30
(UTC+00:00)

SPOT 1/Viking Rocket - Pass Details

Date: 18 September 2020
Orbit: 777 x 794 km, 98.5° (Epoch: 30 October)

Event Time Altitude Azimuth Distance (km) Brightness Sun altitude
Exits shadow 21:14:23 88° 182° (S) 794 3.4 -26.7°
Maximum altitude 21:14:27 89° 254° (WSW) 794 3.4 -26.7°
Drops below altitude 10° 21:19:40 10° 345° (NNW) 2,352 6.7 -27.3°
Sets 21:21:59 0° 346° (NNW) 3,283 7.6 -27.6°
